User: anonymous   Login
Location: Unspecified
(0.0000°N, 0.0000°E)
Time: 11:32:01
(UTC+00:00)
Language:

OPS 7613 P/L 4 - Orbit

View from above orbital plane
View from above orbital plane
View from above satellite
View from above satellite

Ground track
Ground track

The orbit data is extracted from the following two-line orbital elements,

1  4237U 69082E   18017.52184354 -.00000032 +00000-0 +15546-4 0  9991
2  4237 070.0136 183.9854 0020559 182.3121 234.6020 13.95462737458104
Epoch (UTC): 17 January 2018 12:31:27
Eccentricity: 0.0020559
inclination: 70.0136°
perigee height: 894 km
apogee height: 924 km
right ascension of ascending node: 183.9854°
argument of perigee: 182.3121°
revolutions per day: 13.95462737
mean anomaly at epoch: 234.6020°
orbit number at epoch: 45810

The dashed part of the orbit path shows where the satellite is in the earth's shadow,  

DLR